Weather History for Poplar Bluff, MO

Change the Weather History Date:

Friday, February 14, 2014

  Actual Average Record
Temperature  
Mean Temperature 36 °F -  
Max Temperature 44 °F 48 °F 76 °F (1918)
Min Temperature 27 °F 29 °F 10 °F (1929)
Degree Days  
Heating Degree Days 29    
Moisture  
Dew Point 28 °F    
Average Humidity 75    
Maximum Humidity 87    
Minimum Humidity 61    
Precipitation  
Precipitation 0.31 in - - ()
Sea Level Pressure  
Sea Level Pressure 29.79 in    
Wind  
Wind Speed 7 mph (West)    
Max Wind Speed 25 mph    
Max Gust Speed 36 mph    
Visibility 8 miles    
Events Rain    
Averages and records for this station are not official NWS values.
T = Trace of Precipitation, MM = Missing Value Source: NWS Daily Summary

Daily Weather History Graph

Daily Weather History Graph

Search for Another Location

Airport:

Trip Planner

Search our weather history database for the weather conditions in past years. The results will help you decide how hot, cold, wet, or windy it might be!

Date:

Astronomy

Feb. 14, 2014 Rise Set
Actual Time 6:50 AM CST 5:40 PM CST
Civil Twilight 6:24 AM CST 6:07 PM CST
Nautical Twilight 5:53 AM CST 6:37 PM CST
Astronomical Twilight 5:23 AM CST 7:07 PM CST
Moon 5:43 PM CST (2/14) 6:18 AM CST (2/14)
Length of Visible Light 11h 43m
Length of Day
10h 50m
Full, 100% of the Moon is Illuminated
Feb 14
Full
Feb 14
Full
Feb 22
Last Quarter
Mar 1
New
Mar 8
First Quarter

Hourly Weather History & Observations

Time (CST) Temp. Windchill Dew Point Humidity Pressure Visibility Wind Dir Wind Speed Gust Speed Precip Events Conditions
12:53 AM 30.0 °F 25.2 °F 25.0 °F 82% 29.82 in 7.0 mi SSW 4.6 mph - N/A   Clear
1:53 AM 30.9 °F - 25.0 °F 79% 29.81 in 8.0 mi Calm Calm - N/A   Clear
2:53 AM 30.0 °F - 24.1 °F 79% 29.80 in 7.0 mi Calm Calm - N/A   Clear
3:53 AM 28.9 °F 23.9 °F 24.1 °F 82% 29.79 in 7.0 mi SSW 4.6 mph - N/A   Clear
4:53 AM 28.0 °F - 23.0 °F 81% 29.78 in 6.0 mi Calm Calm - N/A   Haze
5:53 AM 28.9 °F 25.2 °F 24.1 °F 82% 29.79 in 7.0 mi NW 3.5 mph - N/A   Partly Cloudy
6:53 AM 32.0 °F 28.7 °F 26.1 °F 79% 29.78 in 9.0 mi South 3.5 mph - N/A   Partly Cloudy
7:53 AM 34.0 °F 29.8 °F 27.0 °F 75% 29.76 in 10.0 mi SSE 4.6 mph - N/A   Overcast
8:53 AM 35.1 °F 31.0 °F 28.9 °F 78% 29.75 in 10.0 mi SW 4.6 mph - N/A   Overcast
9:53 AM 37.0 °F 33.3 °F 28.9 °F 73% 29.68 in 10.0 mi SSE 4.6 mph - 0.00 in Rain Light Rain
10:53 AM 36.0 °F 26.7 °F 30.0 °F 79% 29.73 in 5.0 mi SSW 15.0 mph - 0.07 in Rain Light Rain
11:53 AM 37.9 °F 34.4 °F 33.1 °F 83% 29.72 in 4.0 mi WNW 4.6 mph - 0.08 in Rain Light Rain
12:53 PM 37.9 °F 34.4 °F 33.1 °F 83% 29.66 in 6.0 mi SW 4.6 mph - 0.06 in Rain Light Rain
1:13 PM 37.9 °F 32.7 °F 33.1 °F 83% 29.65 in 2.5 mi West 6.9 mph - 0.03 in Rain Light Rain
1:45 PM 37.0 °F 32.4 °F 33.1 °F 86% 29.64 in 1.8 mi SW 5.8 mph - 0.09 in Rain Rain
1:51 PM 37.4 °F 34.9 °F 33.8 °F 87% 29.63 in 3.0 mi SW 3.5 mph - 0.09 in Rain Light Rain
1:52 PM 37.9 °F 35.5 °F 34.0 °F 86% 29.65 in 3.0 mi SW 3.5 mph - 0.09 in Rain Light Rain
2:30 PM 39.9 °F 36.7 °F 35.1 °F 83% 29.64 in 5.0 mi WSW 4.6 mph - 0.01 in   Haze
2:53 PM 42.1 °F 37.7 °F 37.0 °F 82% 29.67 in 7.0 mi West 6.9 mph - 0.01 in   Overcast
3:04 PM 44.1 °F 38.6 °F 37.9 °F 79% 29.66 in 8.0 mi WNW 10.4 mph - N/A   Overcast
3:31 PM 44.1 °F 35.0 °F 36.0 °F 73% 29.70 in 9.0 mi NNW 24.2 mph 28.8 mph N/A   Overcast
3:53 PM 43.0 °F 34.0 °F 32.0 °F 65% 29.73 in 8.0 mi NW 21.9 mph 34.5 mph N/A   Overcast
4:07 PM 43.0 °F 34.0 °F 32.0 °F 65% 29.73 in 8.0 mi NNW 21.9 mph 35.7 mph N/A   Overcast
4:29 PM 41.0 °F 31.6 °F 30.9 °F 67% 29.75 in 8.0 mi NNW 20.7 mph 32.2 mph N/A   Overcast
4:53 PM 39.0 °F 29.3 °F 28.9 °F 67% 29.81 in 9.0 mi NNW 19.6 mph 28.8 mph N/A   Overcast
5:53 PM 35.1 °F 22.7 °F 26.1 °F 70% 29.89 in 10.0 mi NNW 25.3 mph 31.1 mph N/A   Overcast
6:53 PM 33.1 °F 22.2 °F 24.1 °F 70% 29.94 in 10.0 mi NW 17.3 mph 20.7 mph N/A   Overcast
7:53 PM 32.0 °F 20.5 °F 21.9 °F 66% 29.99 in 10.0 mi NNW 18.4 mph 23.0 mph N/A   Overcast
8:53 PM 30.9 °F 19.1 °F 21.0 °F 67% 30.02 in 10.0 mi NNW 18.4 mph - N/A   Overcast
9:53 PM 30.0 °F 19.5 °F 18.0 °F 61% 30.05 in 10.0 mi NW 13.8 mph - N/A   Mostly Cloudy
10:08 PM 28.9 °F 17.7 °F 18.0 °F 64% 30.03 in 10.0 mi NW 15.0 mph 20.7 mph N/A   Scattered Clouds
10:53 PM 28.0 °F 18.1 °F 17.1 °F 63% 30.08 in 10.0 mi NW 11.5 mph - N/A   Clear
11:53 PM 27.0 °F 16.7 °F 17.1 °F 66% 30.10 in 10.0 mi NW 11.5 mph - N/A   Clear